Content
SEND FEEDBACK

Daily
Averages
Monthly
Summary
United States of America

AGAT, GUAM


Home > North America > United States > Guam
Elevation: 110 meters     Latitude: 13 33N     Longitude: 144 50E

WEATHER
 
SELECT A DAY
Number of Records: 213,834;   Date Range: 1/1/95 - 10/22/14
 
SHARE

PRINT THIS DATA

[ ← Previous Day ]
WEATHER ALMANAC - 12 JANUARY, 2014
[ Next Day → ]
[ °F ]   °C
Weather ElementAverageHighLow
Temperature27.1 °C30.6 °C (2:54 pm)24.4 °C (6:54 am)
Dewpoint23 °C25 °C (8:31 pm)21.1 °C (1:54 am)
Humidity78.8 %96 % (9:54 pm)61 % (2:54 pm)
Barometer1010.8 hPa1012.5 hPa (7:54 am)1009.1 hPa (2:54 pm)
Wind Speed20 km/h37 km/h (1:54 pm)
Wind Gust44.4 km/h (11:54 am)
Weather ElementAverage
Visibility15.6 km
Wind DirectionENE (70.7 °)

Weather ElementTotal
Precipitation3.81 mm
Cooling Degree Days9.2 (Base 18.3)
Growing Degree Days17.5 (Base 10)
Averaged from 30 records on 12 January, 2014
WEATHER CONDITIONS BREAKOUT
WIND DIRECTION BREAKOUT
WEATHER BY HOUR - 12 JANUARY, 2014
[ °F ]   °C
Local TimeTemperatureDewpointHumidityBarometerVisibilityWind DirectionWind SpeedGust SpeedPrecipitationEventsConditions
1:54 AM26.1 °C21.1 °C74 %1011.5 hPa16.1 kmEast (80°)18.5 km/hPartly Cloudy
2:54 AM26.1 °C21.7 °C77 %1011.5 hPa16.1 kmENE (60°)14.8 km/hScattered Clouds
3:54 AM25.6 °C21.7 °C79 %1011.2 hPa16.1 kmENE (60°)14.8 km/hPartly Cloudy
4:54 AM25.6 °C21.1 °C76 %1011.2 hPa16.1 kmENE (70°)14.8 km/hClear
5:54 AM25 °C21.7 °C82 %1011.2 hPa16.1 kmNE (50°)13 km/hClear
6:54 AM24.4 °C22.2 °C87 %1011.9 hPa16.1 kmNE (50°)11.1 km/hPartly Cloudy
7:54 AM26.1 °C22.2 °C79 %1012.5 hPa16.1 kmNE (50°)13 km/hClear
8:54 AM27.8 °C22.2 °C71 %1012.5 hPa16.1 kmENE (60°)24.1 km/hPartly Cloudy
9:54 AM27.8 °C23.3 °C76 %1012.5 hPa16.1 kmNE (50°)25.9 km/hMostly Cloudy
10:54 AM29.4 °C22.2 °C65 %1012.2 hPa16.1 kmNE (50°)27.8 km/h37 km/hScattered Clouds
11:54 AM28.9 °C22.8 °C69 %1011.5 hPa16.1 kmNE (40°)33.3 km/h44.4 km/h0 mmRainLight Rain
12:54 PM28.9 °C22.8 °C69 %1010.5 hPa16.1 kmENE (60°)31.5 km/h42.6 km/h0 mmMostly Cloudy
1:54 PM29.4 °C22.2 °C65 %1009.5 hPa16.1 kmNE (50°)37 km/hMostly Cloudy
2:54 PM30.6 °C22.2 °C61 %1009.1 hPa16.1 kmNE (40°)31.5 km/h40.7 km/hMostly Cloudy
3:54 PM29.4 °C22.8 °C67 %1009.1 hPa16.1 kmNE (40°)31.5 km/h44.4 km/hScattered Clouds
4:13 PM29 °C23 °C70 %1009.8 hPa16.1 kmNE (40°)31.5 km/hMostly Cloudy
4:32 PM29 °C23 °C70 %1010.2 hPa16.1 kmNE (40°)27.8 km/hPartly Cloudy
4:54 PM28.9 °C22.8 °C69 %1009.5 hPa16.1 kmNE (50°)24.1 km/hScattered Clouds
5:54 PM27.8 °C23.3 °C76 %1009.8 hPa16.1 kmENE (70°)14.8 km/hMostly Cloudy
6:08 PM27 °C24 °C84 %1010.5 hPa16.1 kmNE (50°)24.1 km/hScattered Clouds
6:54 PM26.7 °C23.9 °C85 %1010.2 hPa16.1 kmEast (80°)13 km/hPartly Cloudy
7:54 PM26.7 °C23.9 °C85 %1010.5 hPa16.1 kmEast (80°)11.1 km/hMostly Cloudy
8:31 PM27 °C25 °C89 %1011.5 hPa8 kmESE (110°)14.8 km/h0.51 mmRainHeavy Rain
8:54 PM26.7 °C24.4 °C87 %1011.2 hPa16.1 kmESE (110°)16.7 km/h0.76 mmMostly Cloudy
9:03 PM27 °C24 °C84 %1011.9 hPa16.1 kmEast (100°)16.7 km/hMostly Cloudy
9:43 PM25 °C24 °C94 %1011.9 hPa8 kmESE (110°)13 km/h1.27 mmRainLight Rain
9:54 PM25 °C24.4 °C96 %1011.2 hPa16.1 kmSE (130°)11.1 km/h1.27 mmMostly Cloudy
10:01 PM25 °C24 °C94 %1011.9 hPa16.1 kmESE (120°)9.3 km/hScattered Clouds
10:54 PM25.1 °C23.9 °C93 %1010.8 hPa16.1 kmESE (110°)14.8 km/hPartly Cloudy
11:54 PM25.7 °C23.9 °C90 %1010.8 hPa16.1 kmESE (110°)14.8 km/hPartly Cloudy
Hourly data recorded from PGUM, located 0 kilometers away from Agat, Guam







STORIES FROM OUR PARTNERS